This is the latest recevied weather packets stored in our database for station/object W8KHW. If no packets are shown the sender has not sent any weather packets the latest 10 day(s).
| Time | Temp. | Humidity | Pressure | Rain* | Wind** | Luminosity | Snow |
|---|---|---|---|---|---|---|---|
| 1778214086 | 7.78° C | 81% | 1014.4 hPa | 0 mm | - | - | - |
| 1778213586 | 7.78° C | 82% | 1014.7 hPa | 0 mm | - | - | - |
| 1778213086 | 7.22° C | 82% | 1014.7 hPa | 0 mm | - | - | - |
| 1778212585 | 7.22° C | 82% | 1014.5 hPa | 0 mm | - | - | - |
| 1778212085 | 7.22° C | 81% | 1014.6 hPa | 0 mm | - | - | - |
| 1778211585 | 7.22° C | 79% | 1014.7 hPa | 0 mm | - | - | - |
| 1778211085 | 7.78° C | 80% | 1014.7 hPa | 0 mm | - | - | - |
| 1778210584 | 7.78° C | 79% | 1014.6 hPa | 0 mm | - | - | - |
| 1778210084 | 7.22° C | 79% | 1014.5 hPa | 0 mm | - | - | - |
| 1778209584 | 7.22° C | 79% | 1014.6 hPa | 0 mm | - | - | - |
| 1778209084 | 7.22° C | 79% | 1014.5 hPa | 0 mm | - | - | - |
| 1778208584 | 6.67° C | 78% | 1014.7 hPa | 0 mm | - | - | - |
| 1778208083 | 7.22° C | 78% | 1014.4 hPa | 0 mm | - | - | - |
| 1778207583 | 7.22° C | 76% | 1014.6 hPa | 0 mm | - | - | - |
| 1778207083 | 7.22° C | 76% | 1014.6 hPa | 0 mm | - | - | - |
| 1778206583 | 7.78° C | 73% | 1014.3 hPa | 0 mm | - | - | - |
| 1778206083 | 7.78° C | 73% | 1014.5 hPa | 0 mm | - | - | - |
| 1778205583 | 7.78° C | 73% | 1014.7 hPa | 0 mm | - | - | - |
| 1778205082 | 7.78° C | 71% | 1014.6 hPa | 0 mm | - | - | - |
| 1778204582 | 8.33° C | 69% | 1014.6 hPa | 0 mm | - | - | - |
| 1778204082 | 8.33° C | 68% | 1014.6 hPa | 0 mm | - | - | - |
| 1778203582 | 8.33° C | 66% | 1014.3 hPa | 0 mm | - | - | - |
| 1778203081 | 8.89° C | 65% | 1014.3 hPa | 0 mm | - | - | - |
| 1778202581 | 9.44° C | 63% | 1014.3 hPa | 0 mm | - | - | - |
| 1778202081 | 9.44° C | 60% | 1014.4 hPa | 0 mm | - | - | - |
* Rain latest hour (hover to see other rain measurements)
** Current wind speed in m/s (hover to see current wind gust speed)